Wind_Speed
35 35 34 33 32 34 37 37 37 36 37 40 44 46 45 43 41 40 40 40 39 40 40 38 37 37 37 37 36 34 32 30 28 26 24 23 22 20 19 19 19 19 20 20 21 22 22 23 24 25 25 26 27 28 28 29 30 30 30 30 29 29 28 27 26 26 25 25 24 24 24 24 24 25 26 27 28 29 30 30 30 29 29 29 28
35 35 35 35 34 36 38 40 41 41 42 43 45 45 44 41 39 39 39 40 39 40 40 38 37 38 37 37 36 33 31 29 26 25 23 23 22 21 20 19 19 19 20 20 21 21 22 23 24 25 25 26 27 28 28 29 29 29 29 29 29 28 27 26 26 25 24 24 24 24 23 24 24 25 25 26 27 29 29 30 30 30 29 29 29
34 33 34 35 36 37 39 42 43 43 44 44 44 43 40 38 37 38 39 39 39 40 39 37 37 37 37 36 35 33 30 27 25 24 23 22 22 21 20 19 19 19 20 20 21 21 22 23 24 25 26 27 27 28 28 28 28 29 29 29 28 27 26 26 25 24 23 23 23 23 24 24 25 25 26 26 27 28 29 29 29 29 29 29 29
36 35 35 36 37 38 40 42 43 43 44 43 41 38 36 36 37 38 39 39 38 40 39 36 37 37 37 36 34 32 29 26 24 23 22 22 22 21 21 20 19 19 20 20 21 22 23 23 24 25 26 26 27 27 27 27 28 28 28 27 26 26 26 23 22 21 21 21 22 22 23 24 25 26 27 27 28 28 28 29 29 29 29 29 29
38 37 37 37 37 39 41 42 42 41 41 40 37 35 35 36 38 38 38 38 38 39 38 36 36 36 36 35 33 31 28 25 24 22 22 21 21 22 21 21 20 20 20 21 21 22 23 24 24 25 25 26 26 26 26 27 27 27 26 25 26 26 23 21 20 20 21 22 23 23 24 24 24 25 26 28 29 29 30 30 30 30 30 30 30
39 38 37 36 36 38 39 39 38 38 37 36 34 33 34 35 37 38 38 38 38 38 37 35 35 35 35 34 32 30 27 25 23 22 21 21 22 22 22 21 21 21 21 21 22 22 23 23 24 24 25 26 26 26 26 26 26 25 24 24 25 24 21 20 20 22 23 23 24 24 25 26 26 26 26 27 28 29 31 31 31 31 31 30 31
38 37 35 33 34 35 36 36 36 36 34 33 32 32 33 34 36 37 37 37 38 37 36 35 35 34 34 33 31 29 26 24 23 22 21 21 21 22 22 22 21 21 22 22 22 22 23 23 23 24 25 25 25 25 25 25 25 23 22 23 24 23 21 21 22 23 24 24 25 26 26 27 27 27 27 27 27 28 30 31 32 32 32 31 31
36 35 32 31 32 33 34 35 35 34 31 30 30 31 32 33 35 36 36 37 37 36 35 34 34 33 33 32 30 28 25 23 22 22 21 21 21 22 22 22 22 22 22 23 23 23 23 23 23 24 24 25 24 23 24 24 23 22 22 23 24 22 21 22 23 24 24 26 27 28 28 28 28 28 28 28 28 28 28 30 31 32 32 32 31
33 32 30 30 31 31 33 34 32 29 29 29 30 31 32 33 34 35 35 36 36 35 34 33 33 33 32 31 29 27 24 23 22 21 21 21 21 21 22 22 22 22 23 23 23 23 23 23 24 24 24 23 22 22 23 23 22 22 22 24 24 23 22 22 22 23 24 26 28 29 29 29 29 28 28 28 28 28 28 28 29 31 32 32 31
30 30 30 30 29 31 32 31 29 28 28 29 30 30 31 32 33 34 34 35 35 34 33 32 32 32 31 30 28 26 24 22 22 21 21 21 21 21 22 22 22 23 23 23 23 23 24 24 24 24 23 22 22 22 22 22 21 21 22 24 25 24 23 23 22 22 24 25 27 28 29 30 29 29 28 28 28 28 28 28 28 29 31 32 32
29 29 30 29 29 31 31 29 28 29 28 28 29 30 31 33 34 34 34 34 34 33 32 31 32 31 30 29 28 26 23 23 22 21 21 21 21 21 22 22 22 23 23 23 23 24 24 24 24 24 23 22 22 21 21 21 21 20 22 24 26 26 26 25 23 23 24 25 26 28 30 30 30 30 29 28 28 28 28 28 28 28 29 31 32
28 28 28 28 29 30 29 28 29 29 28 29 30 31 32 33 34 34 33 33 33 32 31 31 31 30 29 28 27 25 23 23 22 21 21 21 21 22 22 22 23 23 23 23 23 23 24 24 24 24 24 24 23 21 21 21 21 21 23 26 27 27 27 27 26 25 25 26 27 28 30 31 31 31 30 29 29 29 28 28 28 27 28 29 31
27 27 27 28 28 28 28 28 28 28 28 30 31 32 32 32 33 33 32 32 32 32 31 31 30 30 29 28 27 25 23 23 22 21 21 21 21 22 22 23 23 23 23 23 23 23 23 24 24 24 24 24 23 21 21 21 21 22 24 26 27 28 28 28 27 27 26 27 28 29 31 32 32 31 31 30 30 30 29 29 29 28 27 28 30
27 27 27 27 27 28 28 28 28 28 30 31 31 31 31 32 31 31 30 31 31 31 31 30 30 30 29 27 27 25 24 23 21 20 21 21 21 22 22 23 23 23 23 23 23 23 24 24 24 23 23 23 22 21 21 21 22 23 25 26 27 29 29 28 28 28 28 28 29 30 32 32 33 32 32 31 31 31 31 30 29 29 28 27 28
28 28 28 29 29 28 28 28 28 29 31 32 31 31 31 30 30 29 29 31 31 31 31 30 30 29 28 27 27 26 24 23 21 21 21 21 21 22 22 23 23 23 23 23 23 23 23 22 22 22 22 22 21 21 21 22 23 24 26 28 29 30 29 28 27 29 29 29 30 32 33 34 34 34 33 33 33 32 32 32 31 30 28 27 27
29 29 29 29 28 28 28 28 29 31 32 32 31 31 30 29 29 29 31 32 32 31 30 30 29 29 28 27 27 26 24 23 21 21 21 21 22 22 23 23 23 22 23 23 23 23 21 20 20 21 21 21 21 21 22 23 24 26 29 30 31 30 29 27 26 28 29 30 31 33 34 34 35 35 35 35 35 34 33 32 32 31 30 28 27
29 29 29 29 29 29 29 29 31 32 32 31 30 30 29 29 30 31 32 32 31 31 30 30 29 28 28 27 27 25 24 23 21 21 21 22 22 22 23 23 22 22 23 22 22 21 19 19 20 21 21 21 21 22 23 24 26 28 31 31 30 29 29 27 26 27 29 30 32 34 34 35 36 36 36 36 36 35 33 32 32 32 31 29 27
30 30 31 31 32 31 31 31 32 32 32 30 29 28 28 30 31 32 32 32 31 30 30 29 29 28 28 27 26 25 24 22 21 21 21 22 22 22 23 22 22 22 22 22 20 18 18 18 20 21 22 23 24 24 25 26 28 30 31 31 30 29 29 28 27 27 29 32 33 34 35 36 36 37 37 37 36 36 34 33 32 32 32 30 29
31 32 33 33 33 32 32 32 32 32 31 29 29 28 29 30 31 32 32 32 31 30 29 29 28 28 27 26 25 25 23 22 21 21 22 22 22 22 22 22 22 22 22 20 18 17 18 19 21 24 25 26 27 28 29 29 31 31 32 31 30 29 29 30 29 29 31 33 35 35 36 37 38 38 38 38 37 36 35 34 33 32 32 31 30
32 33 34 34 33 33 33 34 34 33 31 29 29 29 29 30 31 32 32 32 30 29 29 28 28 27 27 26 25 25 23 21 20 21 22 22 22 22 22 22 22 22 21 20 18 18 19 22 25 28 29 30 30 30 31 31 32 33 32 32 30 29 30 32 32 32 33 35 36 37 38 39 39 38 38 38 38 37 35 34 34 33 33 31 30
33 34 34 34 34 34 35 35 34 33 31 30 30 29 30 30 31 32 31 31 29 28 28 28 28 27 26 25 25 24 23 21 20 21 21 21 22 21 21 21 21 21 21 20 19 20 22 26 29 31 32 33 33 33 33 33 33 33 33 32 31 30 31 33 34 34 35 36 37 39 40 39 39 38 39 39 38 38 37 35 34 34 33 33 30
35 35 36 35 35 36 37 36 35 33 31 31 30 29 30 30 30 30 30 29 29 28 27 27 27 26 25 25 25 24 23 22 20 20 21 21 21 21 20 20 20 20 20 20 21 23 26 29 31 32 33 34 34 34 34 34 33 33 33 33 32 32 32 34 36 36 36 37 38 39 40 39 38 39 39 40 40 40 38 37 36 35 34 33 31
37 37 36 36 37 39 37 36 35 33 32 30 29 29 30 29 28 28 29 29 28 28 27 27 26 26 25 25 25 25 23 22 21 21 21 21 21 20 19 19 18 18 19 20 22 24 27 29 30 32 33 35 36 36 36 36 35 34 34 34 33 33 34 35 37 38 38 39 39 39 39 38 38 39 39 40 41 41 40 39 39 38 36 34 32
38 38 38 38 39 39 37 37 36 33 30 28 28 28 28 27 26 27 28 28 28 27 27 26 26 26 25 26 26 25 23 22 21 21 21 20 20 19 18 17 17 17 19 20 22 23 25 27 29 32 35 36 38 38 39 38 38 37 36 35 34 35 35 36 37 39 40 40 39 39 38 38 38 39 39 40 41 41 41 41 41 40 38 35 32
39 39 40 39 39 38 37 37 37 33 28 26 26 25 25 25 25 26 27 28 28 27 27 27 27 26 26 26 26 25 24 23 22 21 20 20 19 18 18 18 18 18 19 20 20 22 24 28 31 33 35 37 38 40 40 40 40 39 38 37 36 36 36 37 38 39 39 39 39 39 38 38 38 39 40 40 41 41 41 42 42 41 40 38 33
39 40 39 37 36 33 33 35 35 30 25 25 24 23 24 24 24 25 27 27 27 27 27 27 27 27 28 28 27 26 24 23 22 22 21 19 18 18 18 19 19 18 18 18 19 21 25 30 32 33 35 37 39 41 42 42 41 40 39 38 37 37 37 37 38 39 39 39 39 39 39 38 38 38 39 40 40 40 41 41 41 42 42 39 34
38 36 35 35 34 30 28 30 30 26 23 24 23 23 23 22 23 25 26 26 27 27 28 28 28 28 29 29 28 27 25 23 23 23 22 20 19 18 18 19 19 17 16 17 20 23 28 31 31 32 35 38 40 42 43 43 42 41 39 38 37 37 37 37 37 38 39 39 39 39 39 38 38 38 38 39 39 40 40 41 41 44 44 39 35
36 33 34 35 34 32 30 31 30 28 28 27 25 24 22 22 24 26 26 25 26 27 28 28 29 29 30 30 29 27 25 24 24 23 22 22 20 18 18 18 17 15 16 18 21 25 28 30 30 31 34 37 40 43 45 46 45 42 40 39 38 37 37 37 37 37 38 38 39 39 38 38 38 38 38 39 39 40 41 41 41 44 42 37 34
36 35 37 36 36 36 36 37 35 34 34 30 26 24 22 23 25 26 25 25 25 27 27 28 29 30 31 30 29 26 25 24 24 23 22 22 20 18 17 16 14 15 17 20 22 26 29 30 30 30 32 36 40 44 47 49 49 46 43 41 39 38 38 37 37 37 37 37 38 38 38 38 39 39 40 40 40 41 41 41 41 41 38 35 34
36 37 39 37 38 38 37 38 37 37 36 30 25 24 22 24 26 26 25 24 25 26 27 28 29 30 31 30 27 26 25 25 24 22 22 22 19 16 14 14 14 17 20 22 23 27 30 31 32 33 36 39 42 44 48 51 52 51 48 44 42 40 39 38 37 37 37 37 37 38 39 40 41 42 43 43 44 42 41 41 38 34 33 33 32
37 39 40 37 37 36 35 34 33 36 35 28 27 27 25 26 27 26 25 24 25 25 27 28 29 30 30 28 27 26 27 25 23 23 23 22 19 15 15 17 19 21 23 24 25 28 31 33 36 38 41 43 45 46 49 53 54 54 52 47 44 41 39 38 38 37 37 38 39 39 40 42 44 46 47 47 47 44 42 38 31 27 27 29 30
40 41 38 34 35 36 33 31 31 34 35 33 34 32 28 28 27 26 25 24 25 25 27 29 29 30 28 27 27 27 28 26 23 24 22 19 18 18 20 23 25 26 26 27 28 30 32 35 38 41 44 46 47 47 51 54 56 57 55 50 45 42 39 39 39 39 39 40 41 42 42 43 44 45 46 47 45 41 37 30 24 23 23 26 31
43 44 37 31 33 33 30 28 28 30 33 35 35 31 29 28 25 24 24 24 25 27 28 29 29 29 27 27 27 27 29 26 24 25 22 17 18 21 24 26 28 28 28 29 30 32 34 37 41 43 46 48 49 50 53 56 57 58 58 52 47 42 40 39 40 41 41 41 41 41 41 41 41 40 40 40 38 35 30 25 22 22 23 27 31
43 45 39 34 33 30 24 23 26 27 28 31 31 29 28 25 22 22 23 24 26 28 29 29 28 27 27 27 27 26 26 23 23 27 25 21 21 22 24 27 29 30 30 31 32 34 37 40 43 46 48 50 52 53 55 57 58 60 59 54 48 44 41 40 41 42 42 41 41 40 39 39 38 37 36 34 32 30 28 26 24 24 24 26 28
42 41 38 37 36 30 25 24 27 28 29 31 31 29 26 21 20 21 23 25 27 28 28 28 28 27 27 28 26 25 24 19 22 29 30 28 26 24 25 29 31 31 31 33 34 37 40 43 46 48 49 52 54 55 56 58 59 61 61 55 49 44 42 41 42 42 42 41 40 40 38 38 37 36 35 33 30 28 28 27 27 26 26 26 26
42 39 35 35 35 30 26 24 27 29 28 29 29 27 22 18 19 21 23 26 27 28 27 27 27 28 28 28 26 25 23 19 21 29 32 32 30 27 26 29 31 32 33 35 37 40 44 46 49 51 52 54 56 57 58 60 61 63 62 55 48 45 43 43 42 42 42 41 40 39 38 37 36 35 34 33 31 29 28 29 29 29 28 28 28
41 40 35 33 34 30 25 23 27 30 29 28 27 24 18 16 18 20 23 25 25 25 25 26 27 27 29 28 26 25 24 22 22 27 31 33 33 31 29 30 32 33 36 38 40 43 47 49 51 53 55 56 58 59 60 61 62 64 63 55 48 45 44 44 43 42 41 40 39 38 37 36 35 34 33 31 31 30 29 30 30 30 29 29 31
42 41 37 34 33 30 26 26 31 33 32 29 27 24 19 16 17 19 21 23 23 23 23 24 24 26 27 27 25 25 26 26 26 27 30 32 35 35 33 32 32 35 38 40 43 46 49 51 52 55 57 58 60 61 61 62 63 65 63 54 48 46 46 44 43 41 40 39 38 37 37 37 36 35 34 32 30 30 30 30 31 31 30 30 31
46 43 40 37 35 31 28 30 34 35 36 34 31 29 26 22 19 18 18 20 21 20 19 20 22 25 26 26 26 26 28 30 31 30 31 33 36 37 35 32 32 36 40 42 45 48 50 52 54 57 58 60 62 62 63 64 64 66 61 53 49 48 47 45 42 41 39 38 37 36 36 36 37 36 35 33 31 31 31 30 31 32 32 31 31
50 47 43 42 40 35 32 32 33 36 39 40 38 36 35 32 26 21 20 22 21 20 19 21 23 25 27 29 29 30 31 32 33 34 34 36 38 39 36 33 33 37 42 44 46 49 52 54 56 57 59 61 62 63 65 65 66 65 59 53 51 49 47 45 42 41 39 37 36 35 34 34 36 36 35 34 32 32 32 32 31 32 33 33 32
52 49 45 44 44 40 34 30 31 34 38 42 42 40 39 39 34 28 26 26 25 24 23 23 25 28 29 30 32 33 32 34 36 37 37 38 40 41 37 34 34 38 42 45 48 51 53 55 57 58 59 61 63 64 65 66 65 62 56 52 50 49 46 44 42 40 39 37 36 35 34 34 35 36 36 35 34 33 33 33 32 33 34 34 35
53 50 45 43 45 41 32 28 29 32 36 40 43 43 40 40 38 34 31 30 30 29 27 27 29 31 31 31 32 33 32 33 37 39 39 40 41 40 37 35 35 39 43 47 50 52 54 56 57 58 59 61 63 63 64 64 63 59 55 52 49 47 46 44 42 41 39 37 36 36 35 35 35 36 36 36 36 36 36 35 34 34 35 36 36
54 49 45 42 43 42 34 29 30 32 35 38 41 44 41 40 39 37 35 34 33 31 31 32 33 33 32 31 32 33 32 32 34 37 39 40 41 40 38 35 36 40 45 49 51 53 55 56 58 58 59 61 62 63 63 63 60 57 55 53 50 48 46 44 42 41 40 38 36 37 36 36 36 37 37 37 37 37 37 37 36 36 37 37 37
52 47 44 41 42 43 39 35 35 35 37 38 40 42 41 40 41 39 39 37 36 35 36 36 36 35 33 32 33 33 32 31 32 35 37 39 41 41 40 39 40 43 47 50 53 54 55 57 59 59 58 59 60 61 62 60 57 55 54 53 52 50 49 48 44 42 41 39 38 38 39 38 37 38 38 39 39 38 38 38 38 38 38 39 39
49 44 43 41 42 43 42 40 38 38 39 40 40 41 41 41 42 41 41 40 39 39 39 39 38 36 34 34 34 35 33 32 32 35 37 39 42 43 44 44 46 48 50 52 53 54 56 58 58 57 57 58 59 60 59 57 55 53 52 52 51 51 52 52 49 45 42 41 40 39 40 41 40 39 39 40 40 40 40 39 39 39 39 39 39
46 42 41 41 42 44 44 43 41 41 41 42 43 43 43 44 44 43 42 43 42 42 42 41 39 38 37 37 37 37 37 37 37 38 38 40 43 46 48 50 51 51 52 53 54 55 57 57 56 56 58 59 59 59 57 54 53 52 51 50 49 48 50 51 51 49 44 42 41 41 42 44 43 41 40 41 42 43 43 42 41 40 40 40 39
45 41 39 38 41 45 46 45 45 44 44 44 44 44 44 45 46 44 44 44 45 46 45 43 42 41 41 42 41 40 40 41 42 42 42 42 44 46 48 50 51 52 53 54 55 57 57 56 55 57 59 60 60 59 55 53 52 51 50 49 47 46 47 48 49 50 48 45 43 42 43 45 45 43 42 42 42 43 45 45 43 41 40 40 39
44 41 38 36 38 42 46 47 46 46 47 47 46 45 46 47 46 45 45 46 48 49 49 47 45 44 45 45 45 43 43 42 43 43 44 44 45 46 47 49 50 52 54 56 57 57 56 55 55 58 61 61 60 58 55 54 53 52 50 48 46 45 45 46 46 48 50 49 47 45 44 44 45 45 44 45 44 44 45 46 46 43 41 41 40
43 40 38 38 39 40 43 46 47 46 47 48 48 47 47 47 46 46 46 48 49 51 51 49 48 47 48 48 47 47 46 44 43 43 44 44 45 46 48 49 51 53 54 55 56 55 55 55 56 60 63 62 59 57 56 56 55 53 51 49 47 45 45 45 45 46 48 50 50 49 46 45 45 46 46 47 47 47 47 46 46 44 41 40 40
43 41 40 40 41 41 42 44 45 46 46 48 49 49 48 47 47 47 47 48 49 50 50 50 49 50 51 50 49 48 47 45 44 44 44 44 45 46 48 49 50 51 52 53 54 55 55 56 58 62 63 61 58 57 57 57 55 53 52 50 49 48 48 47 47 47 47 48 49 49 48 48 48 49 49 49 50 50 50 48 47 45 42 39 39
43 43 42 42 42 42 41 42 44 44 46 48 50 50 48 47 47 48 48 48 49 49 50 50 50 52 52 51 49 48 47 46 45 45 45 45 45 46 47 48 49 50 51 53 54 55 56 58 61 64 63 59 58 58 58 56 54 52 51 50 49 49 49 49 48 47 48 48 49 50 50 50 52 52 53 53 53 52 51 49 47 45 42 39 38
Wind_Direction
275 280 284 285 286 286 291 295 296 296 297 300 304 306 308 310 310 310 311 314 318 318 319 323 322 321 319 317 315 315 314 313 312 309 305 303 300 298 296 293 292 291 290 291 292 293 293 294 296 297 298 300 302 304 305 305 305 305 304 303 304 304 305 303 301 299 297 294 290 286 283 281 279 276 274 271 270 269 269 268 268 267 265 265 266
275 280 283 286 288 290 293 295 295 295 296 299 302 304 305 307 308 309 312 315 318 317 320 324 322 320 317 316 314 314 313 312 310 308 305 302 301 299 298 296 296 295 294 295 295 296 296 297 298 299 300 302 304 305 306 306 306 305 305 306 306 307 307 306 304 302 300 298 294 290 287 284 281 279 277 275 273 272 271 270 270 269 267 265 264
274 277 281 285 288 290 292 293 294 295 296 298 300 302 303 305 306 309 313 316 317 316 320 324 321 318 316 315 313 313 312 311 309 306 304 302 301 300 298 297 297 297 298 298 299 299 298 299 300 301 303 304 305 306 306 306 306 306 307 308 309 311 310 310 308 306 305 303 300 297 293 289 286 283 280 278 277 276 275 273 272 270 269 266 263
275 278 281 284 287 289 291 291 293 294 295 297 301 303 304 306 307 311 313 315 316 316 321 323 320 317 315 314 312 312 311 310 308 306 305 303 302 300 299 298 298 298 299 301 301 300 300 301 301 302 303 304 305 306 306 306 306 307 309 310 313 314 314 313 312 312 311 310 308 305 301 297 292 288 284 281 279 278 277 276 274 272 269 266 263
278 281 284 286 288 289 290 291 292 294 295 298 302 304 306 307 309 311 313 315 315 316 321 322 318 316 314 313 311 311 310 309 307 306 305 304 302 301 300 300 300 300 300 301 301 301 301 301 301 302 302 303 304 305 306 306 307 308 309 311 316 317 316 314 314 314 315 314 312 310 307 303 299 294 290 285 281 278 277 276 275 273 271 268 264
281 283 286 288 289 289 289 291 293 296 298 300 303 305 306 308 309 311 313 313 314 316 320 319 317 316 314 312 310 310 310 308 307 306 305 304 304 303 303 302 302 301 302 302 301 301 301 301 301 302 302 303 304 305 305 306 307 308 308 312 318 318 315 312 311 313 314 314 314 313 311 307 302 298 293 289 284 280 277 275 273 272 271 270 266
280 283 286 289 289 290 291 293 296 298 299 301 303 305 307 308 309 310 312 313 314 317 319 318 318 316 313 311 310 310 309 307 306 305 305 305 305 305 305 304 304 304 304 303 303 302 302 302 302 302 302 303 304 305 306 307 308 306 306 312 318 318 314 310 311 314 315 316 317 317 315 312 308 302 296 292 288 283 279 275 272 271 270 269 268
281 283 286 288 289 291 293 295 297 297 298 302 305 307 308 309 309 309 312 313 314 317 318 318 318 315 312 310 310 309 308 306 305 305 305 305 306 306 306 306 306 306 305 305 305 304 304 303 303 303 303 303 304 306 307 309 308 306 307 313 318 318 313 311 312 315 317 319 319 319 318 316 314 309 303 297 291 287 283 279 274 270 269 268 267
281 283 285 286 288 290 292 296 298 298 301 306 309 309 309 309 309 310 312 313 314 316 318 318 317 314 311 309 309 309 307 306 305 305 305 306 307 307 307 307 307 306 306 306 306 306 306 305 304 304 303 304 306 307 309 310 308 306 308 314 318 317 312 309 309 311 315 318 320 320 318 317 317 315 310 303 297 291 287 284 279 273 268 266 266
279 281 283 285 287 289 292 295 296 299 304 308 310 309 309 309 310 311 313 313 314 316 318 318 316 313 310 308 308 308 307 305 305 305 306 308 309 309 309 308 307 306 306 307 307 307 307 306 305 305 305 305 307 308 310 310 308 306 310 315 318 317 311 305 303 304 310 316 320 322 320 318 316 315 314 311 304 298 292 289 284 279 272 266 264
275 278 282 284 286 289 292 293 294 298 302 305 307 307 308 309 310 311 312 312 314 316 318 318 316 313 310 308 308 308 307 305 305 306 308 309 310 310 309 308 307 307 307 308 308 307 306 306 306 306 306 306 308 308 309 309 307 305 310 316 318 317 313 304 297 297 303 310 317 322 323 320 315 313 315 317 313 305 298 293 289 285 277 269 264
274 278 281 284 286 289 291 292 293 295 298 300 302 304 307 308 309 310 311 313 315 317 318 318 316 312 309 307 308 308 307 305 305 307 309 310 311 310 309 308 308 307 307 308 307 307 306 307 307 306 307 308 309 309 309 309 307 304 308 314 316 316 315 307 296 293 297 302 310 318 323 323 320 314 313 316 317 313 305 298 294 290 284 274 265
273 277 280 284 287 288 289 292 292 292 295 298 300 304 306 307 308 310 312 314 316 318 319 318 315 311 309 308 308 308 306 305 305 307 309 310 311 309 308 308 308 307 307 307 307 306 307 307 308 308 308 309 310 310 310 310 308 306 308 311 313 314 315 309 297 292 294 297 304 313 319 323 323 319 313 313 315 316 313 306 299 294 290 282 270
272 276 280 284 286 286 287 291 292 292 294 297 302 304 305 306 308 310 314 316 317 318 318 317 314 311 309 308 308 308 307 306 306 307 309 310 311 309 308 308 307 307 307 307 307 307 308 309 310 310 311 311 311 312 311 311 309 308 308 309 310 311 312 309 298 291 292 295 301 309 315 319 322 321 317 313 313 314 315 313 307 300 296 290 278
271 275 279 282 285 286 287 291 292 293 295 298 301 303 304 306 308 311 315 316 317 317 316 315 313 310 309 309 308 308 307 306 306 307 309 310 310 309 308 307 306 306 306 306 307 308 309 311 313 314 314 314 313 313 313 311 310 308 307 307 308 308 308 307 300 291 291 294 300 307 312 315 318 320 319 316 314 314 315 314 312 306 300 296 287
272 275 278 280 284 286 289 291 291 292 294 296 299 302 303 304 307 310 312 314 316 315 314 314 312 310 308 308 309 308 307 306 307 308 310 309 308 307 306 305 304 304 305 305 307 309 312 315 317 318 317 316 315 315 314 311 308 305 305 307 308 309 307 306 301 293 292 295 300 307 310 313 316 318 318 317 315 314 315 315 314 311 304 300 295
272 275 276 279 283 287 289 289 289 290 291 294 299 301 303 303 306 308 309 312 313 313 313 312 311 308 308 308 308 307 306 306 307 309 309 307 306 305 305 303 303 303 304 306 307 310 314 319 322 322 321 319 316 314 312 308 305 303 305 308 309 310 308 306 303 297 295 297 301 306 308 311 314 316 316 316 315 314 315 315 315 314 309 303 299
273 274 276 278 283 287 287 286 287 288 290 294 297 300 302 303 305 305 307 310 311 312 311 310 309 307 307 308 307 305 305 306 307 308 306 305 305 304 303 302 302 303 304 306 307 310 316 322 326 326 325 323 320 316 312 308 306 306 307 309 309 310 308 306 304 300 298 300 302 305 308 311 313 314 314 313 313 313 314 315 316 315 313 306 300
273 274 275 278 282 285 285 285 285 286 289 293 296 298 301 302 303 304 307 309 310 310 309 308 307 306 307 307 305 303 304 305 306 306 304 303 303 303 302 301 302 303 304 306 307 310 316 321 323 323 324 324 322 319 315 312 309 308 308 308 309 309 306 304 303 301 300 301 302 304 307 310 312 312 311 311 310 311 312 315 316 315 314 310 301
272 274 276 278 280 283 283 283 283 285 288 293 296 298 300 300 300 303 306 308 308 309 308 306 305 305 305 304 301 301 302 303 304 303 302 302 302 301 300 301 302 303 303 304 305 308 313 316 317 318 320 321 321 319 315 313 310 309 308 307 307 306 304 302 301 301 301 302 303 305 307 309 311 310 308 307 307 308 309 313 317 317 315 313 304
273 275 276 278 280 281 280 280 281 285 289 293 296 297 297 297 300 302 305 306 308 307 305 304 302 302 302 301 298 299 300 301 302 301 300 300 300 299 299 301 302 302 302 301 302 306 311 313 315 316 316 318 318 317 315 312 310 308 307 306 305 303 301 300 300 299 300 301 303 305 307 308 309 307 305 305 305 306 307 310 315 317 315 313 307
274 275 275 278 279 278 277 279 282 286 289 291 293 294 294 295 300 303 305 306 306 304 302 301 299 299 299 297 295 296 297 298 300 299 298 298 298 298 298 301 301 301 302 301 302 306 310 313 315 316 318 319 319 318 315 313 311 308 306 305 303 300 299 298 299 299 299 300 302 304 306 307 306 304 303 304 304 305 305 307 311 315 315 311 308
273 273 273 275 275 274 277 279 282 284 286 289 289 290 292 295 300 303 305 305 303 302 299 297 295 296 296 294 292 293 294 296 296 296 296 297 296 296 298 300 300 302 305 306 305 307 310 314 318 321 323 324 323 321 319 316 313 310 307 303 300 298 296 296 297 298 298 299 301 303 304 304 303 302 302 303 303 304 305 306 309 312 313 310 306
271 271 271 272 272 274 277 278 279 281 283 286 286 289 293 294 297 302 304 302 301 299 296 294 293 294 293 290 289 290 292 293 293 294 295 296 295 294 296 298 298 301 305 305 306 309 316 323 328 329 329 329 328 325 322 319 316 312 309 304 300 296 294 293 294 296 297 299 300 300 300 300 300 300 300 301 302 303 304 305 307 310 312 309 303
270 271 272 274 275 279 282 281 280 281 281 280 282 290 293 291 295 302 303 300 298 295 293 292 292 292 289 287 286 287 289 290 292 293 294 294 291 290 294 295 296 299 301 305 311 320 329 335 336 335 335 334 333 330 326 322 318 314 310 307 302 298 294 293 293 294 295 296 296 297 297 297 298 298 299 300 300 301 302 303 305 308 311 308 300
268 271 274 276 280 284 290 291 286 280 274 272 278 289 290 289 295 301 301 298 296 293 291 291 291 289 286 284 285 285 287 290 292 293 292 289 286 287 290 294 295 297 302 312 323 332 338 340 339 340 341 341 339 337 333 329 324 319 313 309 304 300 297 294 293 293 293 293 293 293 294 295 296 297 297 298 299 299 300 302 303 307 310 306 298
265 269 272 274 278 283 289 294 289 277 267 269 276 286 288 288 294 298 298 296 293 292 290 290 289 286 285 284 284 285 288 291 291 290 288 284 281 281 286 293 295 300 311 323 332 338 341 340 341 345 347 348 347 344 342 338 332 326 320 313 308 303 297 294 292 291 292 292 293 293 294 295 295 295 296 296 297 298 300 301 302 306 308 303 295
265 268 269 268 270 271 274 281 283 276 271 270 275 285 288 286 291 294 294 294 292 290 290 289 286 284 284 284 285 289 292 293 293 291 288 283 279 278 286 295 298 306 319 327 334 338 340 340 343 347 350 352 352 351 349 345 340 334 327 321 316 310 305 299 295 293 292 292 294 295 295 296 295 295 294 295 296 297 299 300 303 306 305 300 294
267 268 269 267 264 264 266 270 273 274 271 267 274 288 287 284 289 292 291 291 289 287 286 285 283 283 284 285 289 293 294 294 294 294 293 286 277 279 292 300 302 310 320 326 333 337 337 339 341 342 343 345 349 352 352 350 346 340 334 328 324 320 316 311 306 302 299 298 297 297 297 297 296 295 294 294 295 296 297 300 305 306 303 299 294
264 265 265 264 262 262 264 266 268 271 266 261 276 287 281 282 288 290 289 287 285 284 283 281 281 282 283 287 292 293 292 291 290 290 292 288 276 279 297 302 306 314 322 327 330 333 335 336 336 335 334 335 339 344 348 350 348 344 338 332 328 323 320 317 313 309 306 303 301 300 299 297 297 295 294 294 293 293 293 299 307 306 303 301 297
259 259 261 263 262 261 261 264 268 269 260 259 277 281 274 281 288 288 286 283 282 281 279 279 280 281 285 291 293 291 289 288 286 284 285 285 274 276 295 302 308 318 324 327 327 330 332 333 332 331 331 332 334 338 344 348 348 346 340 334 329 325 322 319 316 313 310 307 305 303 301 299 297 294 292 291 290 290 290 293 301 304 306 303 296
253 253 256 262 263 259 257 261 265 262 256 262 273 274 274 282 287 286 284 282 281 279 277 277 279 282 288 292 291 290 289 287 282 276 277 281 275 277 290 297 304 313 321 324 325 327 329 329 329 330 331 333 335 337 341 344 346 345 341 335 329 325 323 320 318 316 314 312 308 306 304 301 299 296 293 291 290 289 286 283 285 288 291 287 280
252 251 249 258 260 254 256 257 258 259 260 266 270 274 281 284 284 283 282 281 279 276 276 278 281 286 291 289 290 291 290 287 277 269 269 276 283 286 291 295 299 306 314 319 322 324 325 326 327 329 331 332 334 335 338 341 344 343 340 335 329 325 323 321 319 318 316 314 310 307 305 303 302 300 298 295 291 288 280 270 266 267 267 269 271
251 252 248 253 252 249 257 249 244 258 270 276 279 284 286 281 278 279 280 280 278 277 279 283 288 290 290 286 289 291 290 287 271 264 264 267 278 287 291 293 294 301 309 314 318 319 321 324 325 327 329 330 331 333 335 338 341 341 339 335 329 325 323 321 319 318 315 313 310 308 306 305 304 303 302 298 293 285 276 265 260 259 260 264 271
248 253 250 251 250 251 257 240 236 254 271 283 289 290 286 278 279 282 282 281 280 282 287 292 292 289 287 285 287 286 284 280 266 262 263 265 269 279 289 291 292 298 306 310 313 315 318 321 323 325 327 328 329 331 333 336 339 340 338 333 328 324 321 320 318 316 314 312 311 309 308 307 305 304 302 300 295 285 275 265 257 256 258 262 269
245 250 251 254 255 255 256 243 238 250 266 281 288 291 291 289 290 289 287 287 287 291 294 293 290 288 286 285 284 278 271 270 264 262 264 267 270 275 283 287 290 297 303 306 310 314 317 319 320 321 323 326 327 329 332 334 338 338 336 332 327 323 320 318 317 315 314 313 312 311 310 309 306 304 302 300 296 289 279 270 262 259 258 259 261
244 247 250 255 257 255 253 244 240 248 261 272 281 292 300 301 299 294 290 291 291 292 291 289 288 287 285 283 281 271 261 262 267 265 264 267 269 272 277 282 288 295 301 304 308 311 314 317 317 318 320 324 325 328 330 333 336 336 334 331 327 323 320 319 317 316 315 315 314 314 312 311 309 307 304 301 296 290 283 275 269 265 261 256 256
242 247 247 249 254 255 251 242 239 246 256 262 273 289 300 304 304 299 294 294 294 292 291 292 291 289 288 287 282 270 259 260 266 266 264 263 265 271 276 281 286 293 299 303 306 308 309 313 315 316 319 322 324 326 328 331 334 333 332 330 327 324 321 319 319 318 317 317 316 315 314 313 311 309 307 304 298 291 284 276 269 266 263 257 254
239 245 245 243 249 255 253 244 240 244 250 256 266 280 290 295 297 297 298 300 300 298 297 298 297 297 298 295 288 278 267 263 264 264 262 260 262 267 273 281 286 292 297 301 303 304 306 309 311 313 317 320 322 325 327 329 332 331 331 329 327 325 323 321 321 320 319 318 317 316 315 314 313 311 309 307 301 295 288 281 273 266 262 259 253
236 241 242 239 241 249 251 244 242 245 249 255 262 270 279 284 284 285 288 292 295 294 295 296 297 301 303 300 293 284 275 267 262 260 260 260 261 264 269 279 285 290 295 298 300 303 304 306 307 311 315 318 321 324 326 328 330 330 330 329 327 326 325 323 322 321 319 317 316 315 314 314 314 313 311 309 304 298 292 286 280 272 265 259 253
235 237 239 237 236 243 247 241 242 247 250 255 260 264 272 276 277 278 279 283 286 286 291 295 296 299 300 297 294 289 281 270 262 260 261 261 262 263 269 277 283 289 294 296 299 301 301 302 305 309 313 317 320 323 325 328 329 329 330 328 326 326 325 323 322 320 317 316 315 315 314 315 316 316 315 313 309 303 296 289 282 275 269 262 255
234 234 237 237 235 238 242 240 245 249 250 255 258 260 267 271 273 276 277 278 280 282 288 293 296 297 296 294 293 292 286 273 264 262 263 264 264 265 271 278 283 288 292 294 296 297 298 300 304 308 313 317 320 322 325 326 327 327 328 327 325 324 324 323 321 318 316 315 315 314 314 314 315 316 316 315 313 309 303 295 287 278 271 265 260
233 233 234 237 236 235 238 243 249 251 253 257 257 258 263 267 270 275 274 273 277 279 283 290 294 295 295 292 290 291 289 279 269 265 266 267 267 268 273 278 280 284 287 290 292 293 296 300 303 308 313 317 319 321 323 324 325 326 327 327 325 323 323 322 320 317 315 313 312 313 313 313 313 314 315 314 313 311 307 301 293 284 276 269 264
233 233 232 235 236 235 239 246 251 252 255 257 257 256 260 264 269 272 270 269 273 276 280 287 291 293 293 291 288 288 289 284 276 272 271 270 269 270 273 276 277 281 284 286 289 292 295 299 303 308 313 317 319 321 322 323 324 326 327 326 325 323 323 323 321 318 315 313 313 313 313 313 313 312 312 312 311 311 309 304 297 290 282 275 269
232 233 232 233 233 234 240 246 250 253 255 258 258 257 259 263 267 268 267 267 270 274 279 284 289 291 291 291 289 285 284 283 282 280 278 276 274 273 275 277 279 283 285 287 289 291 294 299 304 310 314 317 319 320 321 321 323 325 327 326 324 323 322 323 322 320 318 316 315 315 315 314 313 311 310 310 311 311 310 307 301 294 287 281 274
230 233 235 236 233 233 238 244 248 252 255 258 260 260 260 261 264 266 266 266 268 273 277 282 286 288 288 290 291 289 285 283 283 284 283 281 279 278 278 279 281 285 287 287 289 292 295 300 305 311 314 316 319 320 320 320 322 325 326 326 324 322 322 321 320 320 319 317 316 315 315 314 313 311 311 310 311 311 311 309 305 298 290 285 279
230 233 236 240 238 236 237 240 245 250 253 256 259 261 261 261 262 264 264 265 267 272 276 279 282 285 287 289 291 293 290 286 286 286 286 285 283 281 281 281 283 286 287 288 290 292 295 300 305 310 313 315 318 320 319 319 322 324 326 325 324 323 322 320 319 318 318 317 316 315 314 313 312 311 310 309 309 310 311 310 307 301 293 286 281
231 232 235 243 246 242 239 240 244 249 252 255 257 259 261 261 262 262 263 264 266 270 274 276 279 281 285 288 290 292 292 290 289 288 288 288 286 286 285 285 287 288 289 289 290 291 295 300 304 309 313 316 318 319 318 320 322 324 325 325 324 324 323 321 318 317 316 316 316 315 314 312 310 309 309 308 308 309 310 309 307 302 296 288 281
229 232 236 243 248 247 243 242 244 247 251 253 255 256 259 261 262 262 262 263 264 267 271 274 277 279 283 287 290 291 292 292 290 289 289 289 289 289 288 288 289 290 290 290 290 292 296 299 302 309 314 316 317 318 318 320 322 324 325 325 325 324 323 321 319 317 315 315 315 315 314 311 309 308 308 308 308 309 309 309 306 302 297 289 282
228 233 237 242 246 247 246 245 244 245 248 252 254 255 257 259 260 261 261 263 264 266 269 273 276 279 282 285 288 289 291 291 290 289 290 290 290 290 290 290 291 293 293 293 293 295 297 298 301 308 314 315 316 317 318 321 323 323 324 325 325 325 323 321 319 318 316 315 315 315 315 313 311 309 308 308 308 309 309 308 306 302 297 290 282
231 236 239 241 244 246 248 248 248 248 249 250 253 254 256 258 259 260 261 263 265 267 270 273 276 279 282 284 286 287 288 288 288 288 289 290 291 292 293 294 295 296 296 296 296 295 295 297 301 308 312 313 315 316 318 321 322 323 324 324 325 325 323 322 321 320 319 318 316 315 315 313 312 310 309 309 308 308 308 306 304 301 296 290 282
Height
10885 10885 10886 10887 10888 10887 10886 10885 10884 10884 10883 10882 10881 10880 10879 10877 10876 10874 10873 10872 10871 10871 10871 10869 10868 10866 10864 10862 10860 10859 10857 10855 10854 10853 10851 10851 10850 10849 10848 10847 10847 10846 10845 10844 10843 10843 10842 10841 10839 10838 10837 10836 10835 10834 10833 10831 10829 10828 10826 10825 10823 10822 10821 10819 10818 10817 10815 10814 10813 10811 10810 10809 10808 10808 10807 10807 10806 10805 10805 10804 10804 10803 10803 10802 10802
10884 10885 10885 10886 10886 10885 10884 10883 10882 10882 10881 10881 10880 10878 10877 10876 10874 10872 10871 10870 10869 10869 10869 10868 10866 10864 10862 10860 10858 10857 10855 10853 10852 10851 10850 10849 10848 10847 10846 10846 10845 10844 10843 10843 10841 10841 10840 10839 10837 10836 10835 10834 10833 10832 10830 10829 10827 10825 10824 10822 10821 10820 10818 10817 10815 10814 10813 10812 10810 10809 10808 10807 10806 10805 10805 10804 10803 10803 10802 10801 10801 10801 10800 10800 10800
10883 10884 10885 10885 10885 10884 10883 10881 10880 10880 10880 10879 10878 10877 10875 10874 10872 10871 10869 10868 10868 10867 10867 10867 10864 10862 10860 10858 10856 10855 10853 10852 10851 10849 10848 10847 10846 10846 10845 10844 10843 10842 10842 10841 10840 10839 10838 10836 10835 10834 10833 10832 10831 10830 10828 10827 10825 10823 10821 10820 10818 10817 10816 10815 10813 10812 10811 10809 10808 10807 10806 10805 10804 10803 10802 10801 10801 10800 10799 10799 10798 10798 10797 10797 10797
10881 10883 10884 10884 10884 10883 10881 10880 10879 10878 10878 10877 10877 10876 10874 10872 10870 10869 10868 10867 10866 10865 10865 10865 10863 10860 10858 10856 10854 10853 10851 10850 10849 10848 10847 10846 10845 10844 10843 10842 10842 10841 10840 10839 10838 10837 10836 10834 10833 10832 10831 10830 10829 10828 10826 10824 10823 10821 10819 10818 10816 10815 10814 10813 10811 10810 10809 10807 10806 10805 10804 10803 10802 10801 10800 10799 10798 10797 10797 10796 10795 10795 10795 10794 10794
10880 10881 10882 10882 10882 10881 10879 10878 10877 10876 10876 10876 10875 10874 10872 10870 10868 10867 10866 10865 10865 10864 10864 10863 10861 10859 10857 10854 10852 10851 10850 10849 10847 10846 10845 10844 10843 10842 10841 10841 10840 10839 10838 10837 10836 10835 10834 10833 10831 10830 10829 10828 10827 10826 10824 10822 10821 10819 10817 10816 10815 10814 10812 10811 10809 10808 10807 10806 10805 10803 10802 10801 10800 10798 10797 10796 10795 10794 10794 10793 10793 10792 10792 10792 10791
10879 10879 10880 10881 10880 10879 10878 10876 10875 10875 10874 10874 10873 10872 10871 10869 10867 10866 10865 10864 10863 10863 10862 10861 10859 10857 10855 10853 10851 10849 10848 10847 10846 10845 10844 10842 10842 10841 10840 10839 10838 10837 10836 10835 10835 10833 10832 10831 10830 10828 10827 10826 10825 10823 10822 10820 10819 10817 10816 10815 10814 10812 10810 10809 10808 10807 10805 10804 10803 10802 10800 10799 10798 10796 10795 10794 10793 10792 10791 10790 10790 10789 10789 10789 10789
10877 10877 10878 10879 10878 10877 10876 10875 10873 10873 10872 10872 10871 10870 10869 10867 10865 10864 10864 10863 10862 10861 10861 10859 10857 10855 10853 10851 10849 10848 10846 10845 10844 10843 10842 10841 10840 10839 10838 10837 10836 10835 10834 10834 10833 10832 10830 10829 10828 10827 10825 10824 10823 10821 10820 10818 10817 10815 10814 10813 10812 10811 10809 10807 10806 10805 10803 10802 10801 10799 10798 10797 10795 10794 10793 10792 10790 10789 10788 10787 10787 10786 10786 10786 10785
10875 10875 10876 10877 10876 10875 10874 10873 10871 10871 10870 10870 10869 10868 10867 10866 10864 10863 10863 10862 10861 10860 10859 10857 10855 10854 10851 10849 10848 10846 10845 10844 10843 10842 10841 10839 10838 10837 10836 10836 10835 10834 10833 10832 10831 10830 10828 10827 10826 10825 10824 10822 10821 10820 10818 10817 10815 10813 10812 10811 10810 10809 10808 10806 10804 10803 10801 10800 10798 10797 10796 10795 10793 10792 10790 10789 10788 10786 10785 10784 10784 10783 10782 10782 10782
10873 10873 10874 10874 10874 10873 10872 10871 10869 10868 10868 10867 10867 10866 10865 10864 10863 10862 10861 10860 10859 10859 10857 10856 10854 10852 10850 10848 10846 10845 10844 10842 10841 10840 10839 10838 10837 10836 10835 10834 10833 10832 10831 10830 10829 10827 10826 10825 10824 10823 10822 10820 10819 10818 10816 10815 10813 10812 10810 10809 10808 10807 10806 10804 10803 10801 10800 10798 10797 10795 10794 10792 10791 10789 10788 10787 10785 10784 10783 10781 10780 10780 10779 10779 10778
10871 10871 10871 10871 10871 10870 10869 10868 10867 10866 10865 10865 10865 10864 10863 10862 10861 10860 10860 10859 10858 10857 10856 10854 10852 10850 10848 10846 10845 10844 10843 10841 10840 10839 10838 10837 10835 10834 10833 10832 10831 10830 10829 10828 10827 10826 10824 10823 10822 10821 10820 10819 10817 10816 10814 10813 10812 10810 10809 10807 10806 10805 10804 10803 10801 10800 10798 10797 10795 10793 10791 10790 10789 10787 10786 10784 10783 10781 10780 10778 10777 10776 10776 10775 10775
10868 10868 10868 10869 10868 10868 10867 10866 10865 10864 10863 10863 10863 10862 10861 10861 10859 10859 10858 10857 10856 10855 10854 10852 10850 10848 10846 10844 10843 10842 10841 10840 10839 10838 10836 10835 10834 10833 10832 10831 10830 10828 10827 10826 10825 10824 10822 10821 10820 10818 10817 10816 10815 10814 10813 10811 10810 10809 10807 10806 10804 10803 10802 10800 10799 10798 10796 10795 10793 10791 10789 10788 10786 10785 10783 10781 10780 10778 10777 10775 10774 10773 10772 10772 10772
10866 10866 10866 10866 10865 10865 10864 10863 10863 10862 10862 10861 10861 10860 10859 10858 10858 10857 10857 10856 10854 10853 10852 10850 10848 10846 10844 10843 10842 10841 10840 10838 10837 10836 10835 10834 10832 10831 10830 10829 10828 10827 10826 10825 10823 10822 10821 10819 10818 10817 10815 10814 10813 10812 10811 10810 10808 10807 10806 10804 10802 10801 10800 10798 10796 10795 10794 10792 10791 10789 10787 10785 10783 10782 10780 10779 10777 10775 10774 10772 10771 10770 10769 10768 10768
10862 10863 10863 10863 10863 10862 10862 10861 10860 10860 10860 10859 10859 10858 10857 10856 10856 10855 10855 10854 10853 10851 10850 10849 10847 10845 10843 10841 10840 10839 10838 10837 10836 10835 10833 10832 10831 10830 10829 10827 10826 10825 10824 10823 10822 10820 10819 10818 10816 10815 10813 10812 10811 10810 10809 10808 10807 10805 10804 10802 10800 10799 10798 10796 10793 10792 10791 10790 10788 10787 10785 10783 10781 10780 10778 10776 10775 10773 10771 10769 10768 10766 10765 10765 10764
10860 10860 10860 10861 10861 10860 10860 10859 10858 10858 10858 10857 10857 10856 10855 10854 10854 10853 10853 10852 10851 10849 10848 10847 10845 10843 10841 10840 10839 10838 10837 10836 10835 10834 10832 10831 10829 10828 10827 10826 10825 10823 10822 10821 10820 10819 10818 10816 10815 10813 10812 10810 10809 10808 10807 10806 10805 10803 10802 10800 10798 10797 10795 10795 10791 10789 10789 10787 10786 10784 10783 10781 10779 10778 10776 10774 10772 10770 10768 10766 10765 10763 10762 10761 10760
10857 10858 10858 10859 10858 10858 10858 10857 10857 10856 10856 10855 10855 10854 10853 10852 10852 10851 10851 10850 10849 10847 10846 10845 10843 10841 10840 10839 10837 10836 10835 10834 10833 10832 10830 10829 10828 10827 10826 10824 10823 10822 10820 10819 10818 10817 10816 10815 10813 10812 10810 10809 10807 10806 10805 10803 10802 10801 10799 10797 10796 10794 10793 10793 10790 10787 10786 10785 10783 10782 10780 10778 10777 10775 10773 10771 10770 10768 10766 10764 10762 10760 10759 10758 10757
10855 10855 10856 10856 10856 10856 10856 10855 10855 10854 10853 10853 10852 10851 10851 10850 10849 10849 10848 10848 10846 10845 10844 10843 10841 10840 10838 10837 10836 10835 10834 10833 10832 10830 10829 10827 10826 10825 10824 10823 10821 10820 10819 10817 10816 10815 10814 10813 10812 10810 10809 10807 10805 10804 10803 10801 10800 10798 10797 10795 10793 10791 10790 10790 10788 10785 10783 10783 10781 10779 10777 10776 10774 10772 10771 10769 10767 10765 10763 10761 10759 10757 10756 10755 10754
10853 10853 10853 10854 10854 10854 10854 10853 10852 10851 10851 10850 10850 10849 10848 10847 10847 10846 10846 10845 10844 10843 10842 10841 10840 10838 10837 10836 10835 10834 10833 10832 10830 10829 10827 10826 10824 10823 10822 10821 10820 10818 10817 10816 10815 10814 10813 10812 10810 10809 10807 10805 10804 10802 10801 10799 10798 10796 10794 10792 10790 10789 10787 10786 10786 10783 10781 10780 10778 10776 10775 10773 10771 10769 10768 10766 10764 10762 10761 10759 10756 10755 10753 10752 10750
10850 10851 10851 10851 10852 10852 10851 10850 10849 10848 10848 10847 10847 10846 10846 10845 10844 10843 10843 10842 10841 10840 10840 10839 10837 10836 10835 10835 10834 10832 10831 10830 10829 10827 10826 10824 10823 10822 10821 10819 10818 10817 10815 10814 10813 10812 10811 10810 10809 10807 10806 10804 10802 10801 10799 10797 10795 10794 10792 10790 10788 10786 10784 10783 10783 10781 10778 10777 10775 10773 10772 10770 10768 10766 10765 10763 10761 10759 10757 10756 10754 10752 10750 10749 10747
10848 10848 10848 10849 10849 10849 10848 10847 10846 10845 10845 10844 10844 10844 10843 10842 10841 10840 10840 10840 10839 10838 10837 10837 10835 10834 10834 10833 10832 10831 10830 10829 10827 10826 10825 10823 10822 10821 10819 10818 10816 10815 10814 10813 10812 10811 10809 10808 10807 10805 10804 10802 10801 10799 10797 10795 10793 10791 10789 10787 10785 10783 10781 10780 10780 10778 10776 10773 10772 10770 10768 10767 10765 10763 10761 10760 10758 10756 10754 10753 10751 10749 10747 10746 10745
10845 10845 10846 10846 10847 10846 10845 10844 10843 10842 10842 10842 10841 10841 10840 10839 10838 10837 10837 10837 10836 10836 10835 10834 10833 10833 10832 10831 10830 10829 10828 10827 10826 10825 10823 10822 10821 10820 10818 10816 10815 10813 10812 10811 10810 10809 10808 10806 10805 10804 10802 10800 10799 10797 10795 10793 10791 10788 10786 10784 10782 10780 10778 10777 10776 10775 10772 10770 10768 10766 10765 10763 10761 10760 10758 10756 10755 10753 10752 10750 10748 10746 10745 10743 10742
10842 10843 10843 10843 10844 10843 10842 10841 10840 10840 10840 10839 10839 10838 10837 10836 10835 10834 10835 10834 10834 10834 10833 10832 10831 10831 10830 10829 10828 10828 10827 10826 10825 10824 10822 10821 10820 10819 10817 10815 10814 10812 10811 10810 10808 10807 10806 10805 10803 10802 10800 10799 10797 10795 10792 10790 10788 10786 10784 10782 10780 10778 10775 10773 10771 10771 10769 10767 10764 10762 10761 10759 10758 10756 10754 10753 10751 10750 10748 10747 10745 10744 10742 10740 10739
10838 10839 10839 10840 10840 10838 10838 10837 10837 10838 10837 10837 10836 10835 10834 10833 10832 10832 10832 10832 10831 10831 10831 10830 10829 10829 10829 10828 10826 10826 10825 10824 10824 10823 10821 10820 10819 10818 10816 10815 10813 10812 10810 10809 10807 10806 10804 10803 10802 10800 10798 10797 10795 10793 10790 10788 10786 10784 10781 10779 10777 10775 10773 10770 10767 10766 10766 10764 10761 10760 10758 10756 10754 10752 10750 10749 10747 10746 10744 10743 10742 10741 10740 10738 10737
10834 10834 10835 10836 10835 10833 10834 10834 10834 10835 10834 10833 10832 10832 10831 10830 10829 10829 10829 10829 10828 10828 10828 10827 10826 10827 10827 10826 10824 10824 10823 10823 10822 10821 10820 10819 10818 10817 10815 10814 10813 10811 10810 10808 10807 10805 10803 10802 10800 10798 10796 10794 10792 10790 10788 10786 10784 10781 10779 10777 10774 10772 10770 10767 10764 10762 10761 10760 10758 10756 10755 10752 10750 10749 10747 10745 10744 10742 10741 10739 10738 10738 10737 10735 10734
10830 10830 10830 10831 10829 10829 10830 10830 10830 10831 10831 10830 10829 10828 10827 10827 10827 10826 10826 10826 10826 10826 10825 10824 10824 10824 10824 10823 10822 10822 10821 10821 10820 10819 10818 10818 10816 10815 10814 10813 10812 10810 10809 10808 10806 10804 10803 10801 10799 10796 10794 10791 10789 10787 10784 10782 10780 10778 10776 10774 10772 10769 10767 10764 10762 10759 10757 10756 10754 10753 10751 10749 10747 10746 10744 10743 10741 10739 10738 10736 10734 10734 10733 10732 10731
10826 10826 10826 10826 10826 10826 10826 10826 10826 10826 10827 10826 10826 10825 10824 10824 10824 10824 10823 10823 10823 10823 10822 10822 10822 10822 10822 10821 10820 10819 10819 10818 10818 10817 10817 10816 10815 10814 10813 10812 10810 10809 10808 10807 10805 10804 10802 10800 10798 10795 10792 10790 10787 10784 10781 10779 10776 10774 10772 10770 10768 10766 10763 10761 10758 10756 10754 10753 10751 10749 10748 10746 10745 10743 10741 10740 10739 10737 10735 10733 10731 10730 10729 10728 10727
10822 10822 10822 10823 10823 10823 10822 10822 10822 10822 10823 10823 10822 10822 10821 10821 10821 10821 10820 10820 10820 10820 10820 10820 10820 10819 10818 10818 10818 10817 10817 10816 10816 10815 10814 10813 10813 10812 10811 10810 10809 10808 10807 10806 10804 10803 10801 10798 10796 10794 10791 10788 10785 10782 10779 10776 10773 10771 10768 10766 10764 10761 10759 10757 10754 10752 10750 10749 10748 10746 10745 10743 10742 10740 10739 10737 10735 10734 10732 10731 10728 10727 10726 10725 10724
10818 10818 10818 10819 10819 10819 10819 10819 10818 10818 10819 10819 10819 10818 10818 10818 10818 10817 10817 10817 10817 10817 10817 10817 10817 10816 10815 10815 10815 10815 10815 10815 10814 10813 10812 10811 10810 10810 10809 10808 10807 10807 10806 10804 10803 10801 10798 10796 10794 10792 10789 10787 10784 10781 10777 10774 10771 10768 10765 10763 10760 10758 10756 10754 10751 10749 10746 10744 10743 10742 10741 10739 10738 10737 10735 10733 10732 10730 10729 10728 10726 10724 10722 10721 10720
10814 10814 10814 10814 10814 10815 10815 10815 10815 10816 10815 10815 10815 10815 10815 10815 10814 10814 10813 10814 10814 10814 10814 10814 10813 10813 10813 10813 10812 10813 10813 10812 10812 10811 10811 10809 10808 10807 10807 10806 10805 10804 10804 10802 10800 10798 10796 10794 10792 10790 10787 10785 10782 10779 10776 10772 10769 10766 10762 10759 10757 10755 10753 10750 10748 10746 10744 10741 10739 10738 10737 10735 10734 10732 10731 10729 10728 10727 10725 10725 10724 10722 10720 10718 10717
10810 10809 10808 10809 10809 10810 10811 10812 10812 10813 10812 10812 10812 10812 10812 10811 10811 10811 10811 10811 10811 10810 10810 10810 10810 10810 10810 10810 10810 10810 10810 10810 10809 10809 10808 10808 10806 10806 10805 10804 10803 10802 10801 10800 10798 10796 10795 10792 10790 10788 10785 10783 10780 10777 10774 10770 10767 10763 10760 10756 10753 10750 10748 10745 10743 10741 10739 10738 10736 10734 10733 10730 10729 10727 10725 10724 10723 10723 10722 10722 10722 10720 10718 10715 10714
10805 10804 10802 10804 10804 10804 10806 10808 10809 10810 10809 10809 10809 10809 10808 10807 10808 10808 10808 10808 10807 10807 10807 10807 10807 10807 10808 10808 10808 10808 10807 10807 10806 10806 10805 10805 10804 10804 10803 10802 10801 10800 10799 10797 10795 10794 10792 10790 10787 10785 10783 10780 10778 10775 10772 10768 10764 10760 10756 10752 10749 10746 10743 10741 10739 10737 10735 10733 10732 10730 10728 10726 10723 10722 10720 10719 10718 10719 10719 10719 10720 10719 10717 10714 10711
10798 10797 10797 10799 10799 10800 10802 10804 10806 10807 10807 10807 10806 10805 10804 10804 10804 10805 10805 10805 10805 10804 10804 10804 10804 10805 10805 10806 10806 10805 10804 10804 10804 10803 10802 10802 10802 10802 10801 10799 10798 10797 10796 10794 10792 10791 10788 10786 10784 10782 10780 10777 10774 10771 10768 10764 10761 10757 10754 10750 10746 10743 10740 10738 10736 10734 10732 10730 10728 10726 10724 10721 10719 10717 10716 10714 10713 10714 10715 10716 10717 10717 10717 10715 10709
10790 10789 10790 10792 10794 10795 10798 10801 10803 10804 10804 10805 10803 10801 10800 10800 10801 10801 10802 10802 10802 10802 10801 10801 10802 10803 10804 10804 10803 10802 10801 10801 10801 10800 10799 10799 10799 10799 10798 10797 10795 10794 10793 10791 10789 10788 10785 10783 10781 10779 10777 10774 10771 10768 10765 10761 10758 10754 10751 10748 10744 10740 10738 10735 10733 10731 10729 10726 10724 10722 10720 10717 10715 10713 10711 10709 10709 10709 10710 10711 10713 10713 10714 10711 10706
10785 10783 10783 10784 10786 10790 10795 10798 10800 10801 10802 10802 10800 10798 10798 10797 10797 10798 10798 10799 10799 10799 10799 10799 10800 10801 10801 10800 10799 10799 10798 10798 10798 10797 10797 10796 10796 10796 10796 10794 10793 10791 10790 10789 10787 10785 10783 10781 10779 10776 10774 10772 10769 10766 10762 10759 10755 10752 10748 10745 10741 10738 10734 10732 10730 10727 10725 10722 10720 10717 10715 10713 10710 10709 10707 10705 10704 10704 10705 10706 10707 10708 10707 10705 10703
10781 10779 10780 10781 10782 10787 10793 10796 10797 10799 10799 10799 10798 10796 10795 10795 10794 10794 10794 10795 10795 10796 10797 10797 10798 10798 10798 10797 10796 10796 10796 10795 10795 10795 10794 10794 10793 10793 10793 10792 10790 10789 10788 10787 10785 10783 10781 10779 10776 10774 10772 10769 10766 10764 10761 10757 10753 10749 10745 10741 10738 10734 10731 10728 10725 10723 10721 10718 10716 10714 10712 10710 10707 10705 10703 10701 10701 10701 10700 10702 10703 10703 10703 10702 10702
10778 10776 10778 10780 10782 10787 10791 10793 10795 10797 10796 10796 10795 10794 10793 10792 10791 10790 10791 10792 10793 10794 10795 10796 10796 10795 10794 10794 10794 10794 10793 10793 10792 10792 10791 10791 10791 10791 10790 10789 10788 10787 10786 10784 10783 10781 10779 10776 10774 10771 10769 10766 10764 10761 10758 10755 10750 10746 10742 10738 10735 10732 10728 10725 10722 10719 10717 10714 10712 10710 10708 10706 10704 10702 10700 10698 10698 10698 10697 10698 10698 10699 10700 10700 10700
10775 10775 10775 10777 10780 10784 10787 10789 10792 10793 10793 10794 10793 10791 10790 10788 10788 10788 10788 10789 10790 10792 10793 10793 10792 10792 10791 10790 10790 10791 10790 10790 10789 10789 10789 10789 10789 10788 10788 10787 10786 10785 10784 10782 10780 10778 10776 10773 10771 10768 10766 10764 10761 10759 10755 10752 10748 10744 10740 10736 10732 10729 10726 10723 10719 10716 10712 10710 10708 10705 10704 10702 10700 10698 10697 10695 10694 10694 10693 10693 10694 10695 10696 10697 10697
10773 10772 10773 10776 10778 10780 10782 10785 10786 10788 10789 10790 10790 10788 10786 10785 10785 10785 10785 10786 10788 10789 10790 10790 10789 10788 10787 10787 10787 10787 10787 10787 10787 10786 10786 10787 10786 10786 10786 10784 10784 10783 10781 10780 10778 10776 10773 10770 10768 10765 10763 10761 10758 10756 10752 10749 10745 10741 10737 10734 10730 10727 10724 10720 10717 10713 10709 10706 10704 10701 10699 10698 10697 10695 10693 10692 10691 10690 10689 10689 10689 10690 10691 10692 10693
10770 10769 10771 10775 10776 10776 10778 10779 10780 10783 10785 10786 10786 10785 10783 10782 10782 10782 10783 10784 10785 10786 10787 10787 10786 10785 10784 10784 10785 10785 10785 10784 10784 10784 10784 10784 10783 10783 10783 10782 10782 10781 10779 10777 10775 10773 10771 10768 10765 10761 10759 10757 10754 10752 10749 10746 10742 10738 10734 10730 10727 10724 10720 10717 10713 10709 10706 10703 10700 10698 10696 10693 10692 10691 10689 10689 10687 10686 10685 10685 10685 10686 10686 10687 10688
10766 10767 10769 10772 10773 10773 10774 10774 10776 10778 10780 10781 10782 10781 10780 10780 10779 10780 10780 10781 10782 10784 10784 10784 10784 10783 10782 10782 10783 10783 10783 10782 10781 10780 10780 10781 10780 10780 10780 10780 10779 10778 10777 10775 10773 10771 10768 10765 10762 10759 10755 10752 10750 10747 10745 10742 10739 10735 10730 10726 10723 10720 10716 10713 10710 10706 10703 10700 10697 10695 10693 10690 10688 10686 10685 10684 10683 10681 10680 10680 10680 10681 10682 10682 10683
10763 10765 10768 10769 10769 10770 10770 10770 10772 10774 10775 10776 10777 10777 10777 10777 10777 10777 10778 10779 10780 10781 10782 10782 10781 10781 10780 10780 10780 10780 10780 10779 10778 10777 10777 10778 10777 10777 10778 10778 10777 10776 10774 10772 10770 10768 10765 10762 10759 10756 10753 10750 10746 10743 10739 10736 10734 10730 10725 10721 10717 10715 10712 10708 10705 10702 10699 10697 10695 10693 10691 10688 10685 10682 10681 10680 10679 10677 10676 10675 10676 10676 10677 10677 10678
10759 10762 10765 10765 10765 10765 10766 10767 10768 10769 10771 10772 10773 10774 10774 10774 10774 10775 10775 10776 10777 10778 10779 10779 10779 10779 10778 10777 10776 10776 10776 10776 10775 10775 10775 10775 10774 10774 10775 10775 10774 10772 10771 10769 10766 10764 10761 10759 10756 10753 10751 10747 10744 10740 10735 10731 10728 10725 10722 10717 10713 10710 10708 10705 10702 10699 10696 10694 10692 10690 10688 10686 10683 10680 10677 10676 10675 10673 10672 10671 10671 10671 10671 10672 10673
10755 10759 10761 10761 10760 10761 10763 10765 10765 10766 10767 10768 10769 10770 10771 10771 10771 10771 10771 10772 10774 10775 10776 10776 10776 10775 10775 10774 10773 10773 10773 10773 10773 10773 10773 10772 10771 10772 10772 10772 10770 10769 10767 10765 10762 10760 10757 10755 10753 10751 10748 10745 10741 10737 10733 10728 10725 10722 10718 10715 10712 10708 10705 10703 10699 10696 10693 10691 10689 10687 10685 10683 10680 10677 10675 10672 10671 10669 10667 10667 10666 10666 10666 10666 10667
10750 10754 10756 10756 10757 10759 10761 10762 10762 10763 10763 10765 10766 10767 10768 10768 10768 10768 10767 10768 10770 10771 10772 10773 10773 10772 10772 10772 10771 10771 10770 10770 10770 10770 10770 10770 10770 10770 10769 10768 10767 10765 10763 10760 10758 10756 10754 10752 10750 10749 10746 10742 10738 10734 10730 10726 10722 10718 10714 10710 10707 10704 10702 10701 10698 10694 10691 10689 10686 10684 10681 10680 10677 10674 10672 10670 10668 10666 10664 10662 10661 10660 10660 10660 10661
10746 10749 10751 10753 10754 10756 10757 10758 10759 10759 10760 10762 10763 10764 10765 10765 10765 10764 10764 10765 10767 10768 10768 10769 10769 10769 10769 10769 10768 10769 10769 10768 10768 10768 10768 10768 10767 10767 10766 10764 10763 10761 10759 10756 10754 10753 10751 10748 10747 10746 10744 10741 10737 10732 10727 10723 10719 10714 10709 10704 10700 10696 10694 10695 10695 10693 10688 10685 10683 10680 10677 10676 10674 10671 10669 10666 10664 10662 10660 10658 10656 10655 10654 10654 10654
10742 10744 10747 10750 10751 10753 10754 10755 10756 10756 10757 10759 10761 10762 10762 10762 10761 10760 10760 10762 10763 10763 10764 10765 10766 10766 10766 10765 10766 10767 10767 10766 10766 10766 10765 10765 10765 10764 10762 10761 10759 10757 10755 10753 10751 10749 10748 10746 10744 10742 10740 10738 10735 10731 10726 10721 10716 10712 10707 10702 10696 10690 10685 10684 10684 10686 10684 10681 10678 10677 10673 10670 10669 10667 10665 10662 10659 10657 10655 10654 10652 10650 10648 10648 10648
10740 10742 10744 10746 10748 10749 10751 10752 10753 10753 10754 10756 10757 10758 10759 10759 10758 10758 10757 10758 10759 10760 10761 10762 10762 10762 10762 10762 10763 10764 10764 10764 10764 10763 10763 10762 10761 10760 10759 10757 10755 10754 10752 10750 10748 10746 10744 10743 10741 10738 10736 10734 10731 10728 10725 10720 10715 10710 10705 10700 10695 10689 10682 10677 10675 10676 10678 10677 10675 10672 10669 10666 10664 10662 10660 10657 10654 10652 10649 10648 10646 10645 10643 10642 10642
10737 10739 10741 10743 10745 10746 10748 10749 10750 10750 10751 10752 10753 10754 10754 10755 10756 10756 10755 10754 10755 10756 10758 10759 10759 10758 10758 10758 10759 10760 10761 10761 10761 10760 10760 10759 10758 10756 10755 10753 10752 10750 10748 10746 10744 10742 10741 10739 10737 10734 10732 10730 10726 10723 10720 10717 10713 10708 10703 10699 10694 10689 10683 10678 10672 10668 10669 10671 10671 10670 10667 10662 10658 10657 10655 10652 10650 10648 10645 10642 10640 10639 10637 10636 10636
10734 10735 10737 10740 10741 10743 10745 10746 10746 10747 10747 10748 10750 10750 10750 10751 10753 10753 10752 10751 10752 10753 10755 10756 10755 10755 10755 10755 10756 10757 10757 10757 10757 10757 10756 10755 10754 10753 10751 10750 10748 10746 10744 10742 10740 10738 10737 10735 10733 10730 10728 10725 10722 10718 10714 10711 10708 10705 10701 10697 10693 10688 10684 10679 10673 10667 10663 10662 10663 10665 10664 10660 10655 10652 10650 10648 10645 10644 10641 10638 10635 10633 10631 10630 10630
10730 10732 10734 10736 10737 10739 10741 10742 10743 10743 10744 10744 10746 10747 10747 10748 10750 10750 10749 10748 10749 10751 10752 10752 10752 10752 10752 10752 10753 10753 10753 10753 10753 10752 10752 10751 10750 10749 10747 10746 10744 10742 10740 10739 10737 10734 10732 10731 10728 10726 10724 10720 10716 10713 10709 10705 10702 10698 10695 10692 10689 10685 10682 10678 10673 10669 10663 10659 10657 10657 10657 10656 10652 10649 10646 10643 10640 10638 10636 10633 10630 10627 10625 10624 10623
10727 10729 10730 10732 10733 10735 10737 10738 10739 10740 10740 10741 10742 10743 10744 10745 10746 10746 10745 10745 10746 10748 10749 10749 10749 10749 10748 10749 10750 10749 10749 10749 10749 10748 10748 10747 10746 10745 10744 10742 10740 10738 10736 10735 10732 10730 10728 10726 10724 10722 10720 10716 10712 10708 10705 10701 10696 10692 10689 10686 10682 10679 10676 10674 10670 10667 10663 10659 10655 10653 10651 10648 10645 10643 10641 10637 10634 10631 10628 10626 10624 10622 10620 10619 10618
10724 10725 10727 10728 10730 10732 10734 10734 10735 10736 10737 10737 10738 10740 10741 10742 10742 10742 10742 10742 10743 10744 10745 10746 10746 10745 10745 10746 10746 10745 10745 10745 10745 10745 10744 10744 10743 10741 10739 10738 10736 10734 10732 10730 10727 10725 10723 10722 10720 10718 10715 10711 10707 10704 10700 10697 10692 10688 10684 10680 10677 10673 10670 10667 10664 10662 10658 10655 10651 10649 10647 10643 10639 10636 10634 10631 10627 10625 10622 10620 10617 10616 10614 10613 10612